Ashland, WI

4:14 AM CDT on April 28, 2017 (GMT -0500)
Kennedy Memorial

Weather History for KASX - April, 2013

Change the Weather History Date:

Thursday, April 4, 2013

  Actual Average Record
Temperature  
Mean Temperature 38 °F -  
Max Temperature 46 °F 44 °F 70 °F (1991)
Min Temperature 30 °F 23 °F 2 °F (1975)
Degree Days  
Heating Degree Days 28    
Moisture  
Dew Point 23 °F    
Average Humidity 51    
Maximum Humidity 65    
Minimum Humidity 35    
Precipitation  
Precipitation 0.00 in - - ()
Sea Level Pressure  
Sea Level Pressure 30.04 in    
Wind  
Wind Speed 13 mph (WNW)    
Max Wind Speed 21 mph    
Max Gust Speed 32 mph    
Visibility 10 miles    
Events      
Averages and records for this station are not official NWS values.
T = Trace of Precipitation, MM = Missing Value Source: NWS Daily Summary

Daily Weather History Graph

Daily Weather History Graph

Search for Another Location

Airport or City:

Trip Planner

Search our weather history database for the weather conditions in past years. The results will help you decide how hot, cold, wet, or windy it might be!

Date:

Astronomy

Apr. 04, 2013 Rise Set
Actual Time 6:36 AM CDT 7:37 PM CDT
Civil Twilight 6:06 AM CDT 8:07 PM CDT
Nautical Twilight 5:29 AM CDT 8:44 PM CDT
Astronomical Twilight 4:50 AM CDT 9:23 PM CDT
Moon 3:23 AM CDT (4/4) 1:36 PM CDT (4/4)
Length of Visible Light 14h 01m
Length of Day
13h 00m
Waning Crescent, 33% of the Moon is Illuminated
Apr 4
Waning Crescent
Apr 10
New
Apr 18
First Quarter
Apr 25
Full
May 2
Last Quarter

Hourly Weather History & Observations

Time (CDT) Temp. Windchill Dew Point Humidity Pressure Visibility Wind Dir Wind Speed Gust Speed Precip Events Conditions
12:53 AM 39.9 °F 30.2 °F 26.1 °F 58% 29.99 in 10.0 mi SW 20.7 mph 32.2 mph N/A   Overcast
1:53 AM 41.0 °F 33.1 °F 26.1 °F 55% 29.96 in 10.0 mi SW 15.0 mph 28.8 mph N/A   Overcast
2:53 AM 39.9 °F 32.1 °F 26.1 °F 58% 29.95 in 10.0 mi SW 13.8 mph 23.0 mph N/A   Partly Cloudy
3:53 AM 39.0 °F 31.8 °F 26.1 °F 60% 29.95 in 10.0 mi SW 11.5 mph - N/A   Clear
4:53 AM 39.0 °F 34.8 °F 27.0 °F 62% 29.95 in 10.0 mi WSW 5.8 mph - N/A   Overcast
5:53 AM 41.0 °F 35.2 °F 28.0 °F 60% 29.95 in 10.0 mi WSW 9.2 mph - N/A   Overcast
6:53 AM 39.9 °F 33.9 °F 28.9 °F 65% 29.97 in 10.0 mi West 9.2 mph - N/A   Overcast
7:53 AM 41.0 °F 36.4 °F 30.0 °F 65% 29.99 in 10.0 mi West 6.9 mph - N/A   Scattered Clouds
8:53 AM 42.1 °F 36.1 °F 30.0 °F 62% 30.00 in 10.0 mi NW 10.4 mph - N/A   Clear
9:53 AM 42.1 °F 36.1 °F 30.0 °F 62% 30.01 in 10.0 mi WNW 10.4 mph - N/A   Clear
10:53 AM 44.1 °F 38.1 °F 24.1 °F 45% 30.02 in 10.0 mi WNW 11.5 mph - N/A   Clear
11:53 AM 44.1 °F 39.0 °F 24.1 °F 45% 30.02 in 10.0 mi West 9.2 mph 18.4 mph N/A   Clear
12:53 PM 44.1 °F 36.5 °F 25.0 °F 47% 30.03 in 10.0 mi WNW 17.3 mph 25.3 mph N/A   Clear
1:53 PM 45.0 °F 38.9 °F 25.0 °F 46% 30.04 in 10.0 mi WNW 12.7 mph 21.9 mph N/A   Scattered Clouds
2:53 PM 45.0 °F 38.5 °F 21.0 °F 39% 30.04 in 10.0 mi WNW 13.8 mph 23.0 mph N/A   Clear
3:53 PM 45.0 °F 37.9 °F 19.9 °F 37% 30.04 in 10.0 mi NNW 16.1 mph 20.7 mph N/A   Clear
4:53 PM 45.0 °F 38.5 °F 19.0 °F 36% 30.05 in 10.0 mi West 13.8 mph 20.7 mph N/A   Clear
5:53 PM 44.1 °F 37.7 °F 18.0 °F 35% 30.07 in 10.0 mi NW 12.7 mph 17.3 mph N/A   Clear
6:53 PM 42.1 °F 36.6 °F 17.1 °F 37% 30.09 in 10.0 mi NNW 9.2 mph - N/A   Clear
7:53 PM 37.0 °F 31.6 °F 17.1 °F 44% 30.11 in 10.0 mi NNW 6.9 mph - N/A   Clear
8:53 PM 35.1 °F 29.3 °F 17.1 °F 48% 30.14 in 10.0 mi NNW 6.9 mph - N/A   Clear
9:53 PM 33.1 °F 26.9 °F 16.0 °F 50% 30.15 in 10.0 mi NNW 6.9 mph - N/A   Clear
10:53 PM 30.9 °F - 16.0 °F 54% 30.17 in 10.0 mi Calm Calm - N/A   Clear
11:53 PM 30.0 °F 24.1 °F 17.1 °F 59% 30.18 in 10.0 mi NNW 5.8 mph - N/A   Clear